User: anonymous   Login
Location: Caltech
(34.1382°N, 118.1253°W)
Time: 05:07:01
(UTC-07:00)
Language:

Saudisat 1A - Orbit

View from above orbital plane
View from above orbital plane
View from above satellite
View from above satellite

Ground track
Ground track

The orbit data is extracted from the following two-line orbital elements,

1 26546U 00057B   17232.90043271 +.00000104 +00000-0 +26692-4 0  9990
2 26546 064.5548 132.7473 0023180 220.3013 139.6379 14.90561810916288
Epoch (UTC): 20 August 2017 21:36:37
Eccentricity: 0.0023180
inclination: 64.5548°
perigee height: 580 km
apogee height: 612 km
right ascension of ascending node: 132.7473°
argument of perigee: 220.3013°
revolutions per day: 14.90561810
mean anomaly at epoch: 139.6379°
orbit number at epoch: 91628

The dashed part of the orbit path shows where the satellite is in the earth's shadow,  

DLR